Theta_e
307 307 307 307 308 308 307 307 307 307 310 311 311 313 312 311 312 312 311 309 307 304 303 302 300 298 297 297 296 296 294 294 295 294 293 293 294 294 295 295 295 294 293
305 305 305 305 305 305 306 305 305 305 307 309 310 311 310 310 310 310 309 308 306 304 302 301 299 298 297 296 296 295 294 295 294 294 295 291 290 292 293 293 293 293 293
301 302 302 303 303 302 303 302 303 304 304 306 307 307 305 306 305 306 305 305 304 303 301 300 299 298 297 296 296 295 295 293 293 295 296 291 293 291 291 291 292 291 292
301 301 299 299 299 299 300 301 301 301 302 303 304 304 302 301 302 303 303 303 302 302 301 300 300 298 297 297 297 296 296 297 292 292 291 293 295 292 288 290 291 291 290
298 297 297 297 297 297 297 299 300 300 299 301 302 302 301 303 303 302 302 301 300 300 300 299 299 298 297 297 297 295 295 296 296 294 291 291 291 292 294 289 288 290 290
296 295 296 296 296 297 297 296 297 297 298 299 300 300 300 300 300 299 299 299 299 298 298 298 298 297 296 296 296 295 295 295 295 296 293 292 291 290 291 291 290 289 289
294 294 294 294 294 295 296 295 295 294 295 296 297 298 298 299 299 299 298 298 297 296 296 296 295 295 295 296 295 294 294 294 293 295 294 295 295 293 293 293 290 288 287
294 293 293 294 293 294 294 295 293 293 293 294 294 295 296 297 298 298 298 298 297 297 297 296 295 295 295 294 294 293 293 293 293 293 294 293 293 292 292 291 290 286 286
292 292 293 293 293 293 293 293 293 292 292 292 293 293 294 294 295 296 297 297 297 297 296 296 294 295 294 293 292 291 291 291 292 292 293 292 292 292 292 292 293 292 286
290 291 291 292 292 292 292 292 292 291 291 291 292 292 292 292 293 294 294 294 295 295 294 294 293 294 294 292 292 291 291 290 290 290 290 290 291 290 291 290 290 291 292
288 289 291 292 292 291 291 291 290 290 289 289 290 291 291 291 291 291 292 292 293 294 293 294 293 292 292 292 291 290 290 289 289 288 289 288 289 289 289 289 288 287 288
286 287 288 290 290 288 288 288 289 288 288 289 289 289 289 290 290 290 291 291 290 291 292 292 291 291 290 290 289 289 288 288 287 288 287 287 285 287 287 286 286 286 286
285 285 286 287 290 287 286 287 287 287 287 287 287 287 287 287 287 288 289 290 290 289 290 289 289 289 289 289 289 288 288 288 287 287 285 285 285 284 284 284 284 284 283
282 283 284 285 288 286 284 285 285 285 285 285 286 286 286 286 286 286 287 287 288 288 288 288 288 288 288 287 287 286 287 287 286 287 285 285 284 284 283 283 284 283 283
281 282 282 284 285 285 283 283 283 284 284 283 284 284 285 285 285 285 285 286 286 286 286 286 286 286 286 285 285 285 285 286 285 285 284 284 284 285 284 283 284 283 283
281 282 283 283 284 285 283 282 282 283 283 282 282 283 284 282 281 284 284 283 284 285 285 284 284 284 284 286 288 287 284 284 284 283 283 283 283 283 286 286 286 284 282
281 282 282 283 283 285 284 282 282 283 282 280 281 281 281 280 279 282 282 282 282 283 283 283 284 283 284 287 287 288 285 283 284 283 283 282 282 282 283 286 286 284 285
282 282 283 283 284 285 283 283 282 281 281 280 280 280 279 278 278 280 278 279 281 282 282 283 283 283 284 286 287 287 286 285 284 284 283 283 281 281 281 282 282 282 282
283 284 284 284 284 282 282 281 280 280 280 278 279 279 278 276 276 276 277 277 279 280 281 282 282 283 284 285 286 286 285 285 284 283 284 283 282 282 283 281 281 280 280
284 284 283 283 281 282 281 279 278 278 278 278 278 278 277 275 274 275 275 276 277 277 280 281 282 282 282 284 285 285 284 284 284 283 282 282 282 284 283 281 281 279 279
283 283 282 280 280 280 279 277 277 276 278 278 277 276 275 274 273 273 274 273 274 275 277 278 280 281 282 282 284 285 284 283 283 283 281 281 283 283 283 284 281 281 280
281 280 279 279 279 279 277 276 275 276 277 276 274 273 272 272 272 270 271 271 272 272 274 276 278 280 281 282 282 284 284 285 283 283 282 281 281 283 283 283 282 283 281
278 278 277 276 276 276 275 273 274 275 273 271 270 269 270 269 269 268 269 269 270 271 272 275 277 278 280 281 281 283 284 284 283 284 283 282 281 282 282 283 283 281 279
274 274 272 271 271 272 271 270 270 270 268 266 267 267 266 267 267 268 268 268 269 270 271 273 276 277 278 279 280 280 280 282 283 284 281 280 280 281 281 281 283 280 277
270 270 268 267 267 267 266 266 265 264 263 263 263 263 264 264 264 265 266 267 268 269 269 271 273 274 275 278 280 279 278 279 281 281 279 278 278 278 279 279 278 278 276
267 265 265 264 263 262 262 262 262 261 260 260 260 261 261 261 262 262 263 267 269 270 272 274 274 275 278 280 281 281 281 281 282 278 276 276 276 277 278 278 277 276 274
Wind_Speed
13 10 9 11 11 11 11 12 13 14 13 12 12 12 13 12 12 13 16 17 15 18 16 11 13 12 12 12 13 9 12 6 8 7 4 3 4 5 5 5 5 5 4
11 10 12 13 12 10 9 9 10 10 11 10 10 10 10 11 11 11 13 15 17 17 15 14 13 15 11 14 14 13 9 6 11 6 5 5 4 4 5 5 5 6 4
12 16 15 14 13 14 13 10 8 8 9 10 7 8 4 6 7 10 10 11 15 15 17 17 13 14 12 12 15 14 14 10 10 9 3 4 5 7 5 7 6 6 4
17 17 18 18 17 17 13 13 9 5 4 8 8 12 10 11 9 9 10 11 15 16 17 15 15 15 12 13 12 11 11 11 10 7 6 3 1 5 5 6 8 7 6
16 18 19 19 17 21 18 16 13 8 3 4 7 7 10 9 7 6 11 14 13 16 16 16 16 14 11 13 15 14 13 9 9 8 6 6 4 3 3 5 7 8 8
16 16 15 20 22 20 19 18 16 13 8 4 5 7 10 10 7 8 7 8 9 11 16 16 15 14 13 14 13 14 17 13 10 9 8 8 7 8 5 3 6 8 8
16 18 22 20 19 20 20 17 19 17 14 10 7 7 9 11 12 11 8 9 9 9 15 17 16 14 16 15 13 13 14 15 14 13 10 8 7 4 7 6 5 4 4
15 16 16 16 17 18 18 18 18 17 17 17 13 8 8 7 8 10 9 9 9 10 13 14 16 17 16 16 15 12 12 13 12 15 11 9 8 8 7 7 7 4 5
11 13 15 14 14 15 16 16 16 16 18 17 14 14 11 9 9 12 11 9 11 9 12 14 16 17 16 17 17 13 15 14 14 14 13 10 8 8 7 7 7 6 7
12 11 10 11 12 13 13 14 15 17 16 15 14 12 14 12 10 10 11 12 12 12 12 14 15 16 16 17 17 15 15 16 13 12 15 13 9 9 8 8 7 7 6
13 13 13 13 13 13 14 14 14 15 15 15 14 15 14 14 13 10 10 11 12 11 13 13 14 15 16 16 16 17 16 18 18 16 16 17 13 10 9 9 9 8 7
11 11 10 10 12 14 14 15 15 14 14 13 12 13 13 14 14 13 13 11 11 11 12 12 13 13 15 16 17 18 16 18 19 18 17 17 11 14 12 9 11 10 10
9 10 11 10 10 12 12 13 14 14 15 14 14 13 14 14 15 15 15 14 12 12 12 12 12 12 14 15 16 18 19 18 18 17 18 18 16 16 11 12 10 9 7
4 7 8 11 10 11 12 12 12 11 12 13 13 13 13 13 14 14 15 14 13 12 12 11 12 13 13 14 14 15 18 18 17 18 18 18 19 19 16 14 13 10 9
4 5 7 8 9 11 13 11 11 11 11 11 11 12 12 12 12 12 12 12 12 11 11 11 11 12 12 10 14 15 16 18 18 18 18 19 20 26 22 14 14 13 10
7 8 9 9 9 8 9 11 13 14 13 11 12 12 11 11 12 12 12 12 11 10 9 10 12 13 10 18 22 20 15 17 19 19 18 18 21 24 30 30 29 24 19
10 11 12 11 10 10 10 10 11 11 11 12 11 10 9 10 12 12 13 14 13 13 12 10 10 14 13 20 23 24 17 16 19 20 19 17 15 20 20 28 27 29 31
10 12 12 13 12 10 11 11 10 11 11 11 11 10 11 12 14 12 13 13 13 13 13 13 12 12 11 21 23 24 18 19 21 20 20 19 20 20 22 20 20 19 20
12 11 10 12 12 13 13 11 12 12 12 13 12 11 10 13 15 15 16 14 13 13 13 12 14 14 14 19 23 21 16 19 22 17 18 20 19 23 32 21 22 18 16
13 11 12 11 12 13 10 12 13 13 14 13 13 11 10 11 13 15 16 16 14 16 13 15 14 17 18 21 23 20 12 17 14 16 17 25 22 27 34 23 20 19 18
13 11 12 12 13 12 11 14 15 15 14 13 13 13 13 12 13 15 14 15 15 16 16 16 15 16 16 17 25 25 15 14 14 14 13 12 29 30 32 33 19 22 17
11 13 12 13 14 14 13 16 18 16 14 13 14 14 14 12 13 15 15 16 15 16 17 16 16 12 14 19 23 27 28 25 16 15 11 11 24 31 30 29 27 28 24
11 11 11 15 15 14 13 17 18 17 16 16 16 15 16 16 15 16 16 14 14 14 15 13 14 14 11 11 23 27 28 29 22 13 16 20 24 29 29 36 33 27 14
13 12 13 15 18 15 16 16 19 19 18 20 20 18 17 18 16 13 13 13 13 13 13 14 14 13 12 12 9 10 11 21 20 19 13 18 21 24 23 20 22 15 13
13 12 13 16 18 18 18 17 18 19 20 20 20 19 16 17 16 15 13 13 15 16 14 14 14 14 14 12 15 14 10 10 14 10 10 11 13 13 14 13 13 12 12
14 14 16 16 17 17 18 18 16 17 18 18 15 14 14 14 14 15 15 24 31 35 36 38 29 17 32 34 30 26 23 27 24 12 12 12 13 13 14 13 14 12 14
Wind_Direction
310 335 325 299 285 278 266 248 231 220 206 207 208 211 216 214 218 214 211 206 199 195 196 193 185 188 190 187 183 175 170 166 163 139 134 122 168 190 183 173 161 158 148
345 6 5 345 338 329 324 296 260 240 223 216 210 214 220 229 230 222 223 215 205 197 197 193 189 188 187 190 189 180 174 174 184 183 157 174 176 200 203 187 183 176 168
22 23 17 22 14 14 2 337 294 256 223 226 224 218 245 233 225 228 226 220 217 207 199 198 193 190 193 190 189 189 182 177 191 213 224 163 208 157 178 198 192 186 187
34 23 21 27 32 32 19 9 357 315 226 214 217 220 230 221 217 225 223 216 215 213 212 207 201 194 192 196 197 195 194 185 177 192 222 251 126 186 170 205 203 200 204
36 36 32 31 26 27 20 19 22 25 360 256 237 229 240 260 267 246 210 205 208 215 214 214 209 206 203 201 189 189 201 206 194 191 166 196 188 229 178 166 185 210 212
39 38 35 34 33 29 24 23 23 24 16 341 266 261 267 264 251 233 218 215 217 216 215 207 206 210 210 208 203 197 194 196 211 205 202 184 177 189 176 159 175 197 190
39 33 31 31 30 30 30 25 24 23 11 16 341 300 280 273 268 265 242 234 217 218 217 207 205 200 204 207 206 208 207 203 197 198 200 207 212 180 195 184 147 164 156
37 36 36 35 33 31 29 28 29 25 17 20 0 333 303 286 281 269 257 246 243 232 227 218 214 211 206 202 201 205 210 211 214 210 208 203 206 198 188 171 156 166 177
43 37 27 27 29 29 29 25 24 22 23 17 12 359 343 315 290 281 268 262 251 248 234 224 221 217 215 209 201 203 205 207 208 214 212 216 209 203 200 189 181 179 186
23 28 29 30 25 22 24 25 25 24 14 8 8 4 1 347 321 301 286 277 266 249 233 227 222 225 218 211 211 212 210 207 208 210 206 204 204 202 201 199 195 196 194
15 11 13 17 18 19 17 20 18 15 11 10 0 359 359 0 352 337 312 286 279 263 247 237 224 219 218 221 218 219 219 214 209 205 204 205 202 201 196 195 191 192 184
9 5 9 9 12 10 12 8 6 9 6 3 359 357 358 354 355 355 342 323 293 277 258 247 235 227 219 218 221 224 218 220 218 210 213 208 195 204 198 195 191 193 183
358 357 355 3 8 6 4 2 359 358 355 354 355 354 355 353 347 345 345 340 319 294 273 257 242 234 232 222 223 225 226 222 224 217 210 208 199 204 194 194 196 192 183
340 346 347 345 350 357 355 351 348 353 350 346 345 346 349 345 340 340 336 336 326 305 286 265 255 248 238 232 229 228 230 227 223 223 216 210 205 204 197 194 201 183 184
320 331 337 331 333 340 341 342 335 341 344 342 342 341 339 341 335 332 328 323 320 310 299 279 262 254 244 236 231 229 230 233 228 223 217 213 213 206 196 191 189 186 181
335 336 331 322 317 319 327 323 326 331 334 334 332 331 328 333 330 324 323 321 319 318 306 287 275 261 248 242 239 234 225 229 228 224 224 222 208 208 198 198 192 187 180
328 335 329 318 302 294 312 303 308 314 310 311 312 315 316 316 323 315 321 321 320 317 308 293 274 273 265 258 249 240 236 232 227 225 221 216 213 211 206 203 196 198 197
299 317 320 317 310 293 302 295 293 295 295 298 301 305 313 312 315 303 308 308 311 310 308 299 289 275 267 265 254 245 239 236 236 226 225 220 214 206 200 197 198 197 199
280 296 302 304 303 296 300 289 283 288 278 278 283 291 304 305 309 307 306 308 301 300 297 296 293 284 277 266 263 253 240 240 238 236 228 225 220 212 206 197 200 195 197
268 287 302 306 296 298 302 285 282 280 273 280 277 281 281 283 288 295 298 298 297 296 295 290 287 281 276 270 266 259 249 246 240 233 234 226 216 207 205 205 200 199 189
284 299 305 300 297 302 300 288 289 284 285 280 278 277 283 282 284 286 289 294 293 291 288 283 279 273 265 263 258 254 250 246 242 234 223 224 222 216 206 207 206 205 175
300 307 304 299 301 307 306 296 292 301 297 286 277 280 285 286 287 284 283 283 281 279 280 282 277 270 266 256 253 249 243 249 243 237 220 216 213 217 210 208 208 206 178
306 307 303 303 302 308 309 301 302 310 306 297 288 285 285 283 280 278 278 278 275 270 272 273 271 272 271 261 255 253 249 247 250 241 217 207 207 215 210 211 196 198 184
315 320 317 308 305 313 312 309 310 311 305 297 293 294 291 289 285 279 274 270 268 268 266 265 265 268 265 261 251 246 246 253 253 248 205 194 201 203 206 206 194 190 179
316 317 311 303 303 311 309 310 306 305 299 297 297 295 291 288 287 277 275 270 267 267 271 267 273 273 265 259 259 246 242 241 236 216 189 189 194 197 207 195 177 188 169
318 310 307 304 303 303 299 298 300 299 297 296 295 293 293 288 284 283 280 270 274 274 270 268 262 263 262 264 262 260 251 250 244 197 191 194 194 191 194 198 171 173 165